"Timestamp","TZ","WindDir_Mean (deg)","WindSpd_Mean (km/h)","WindSpd_Min (km/h)","WindSpd_Max (km/h)","Temp_Mean (deg)","RH_Mean (%)","MSLP_Mean (hPa)","Rain_Acc (mm)","Rain_Intensity (mm/h)","Hail_Acc (hits/cm2)","Hail_Intensity (hits/cm2hr)","Solar_Mean (W/m2)"
2023/10/08 00:00:00.013,n,354,1.08,0.36,1.44,16.8,65.5,1028.22,0,0,0,0,0.027885
2023/10/08 00:01:00.001,n,170,5.04,4.32,5.4,16.9,64.800004,1028.22,0,0,0,0,0.024376
2023/10/08 00:02:00.001,n,205,5.04,4.68,5.4,16.9,64.6,1028.22,0,0,0,0,0.027008
2023/10/08 00:03:00.004,n,218,1.08,0.72,1.44,16.9,64.6,1028.22,0,0,0,0,0.024376
2023/10/08 00:04:00.007,n,189,2.52,1.8,3.6,16.9,64.300004,1028.22,0,0,0,0,0.025291
2023/10/08 00:05:00.010,n,211,2.16,1.8,2.52,16.9,64.300004,1028.22,0,0,0,0,0.022659
2023/10/08 00:06:00.001,n,239,2.52,2.16,3.24,16.9,64.300004,1028.22,0,0,0,0,0.025291
2023/10/08 00:07:00.005,n,188,3.6,2.88,3.96,16.9,64.300004,1028.22,0,0,0,0,0.025291
2023/10/08 00:08:00.007,n,149,3.96,3.6,3.96,16.9,64.300004,1028.22,0,0,0,0,0.024376
2023/10/08 00:09:00.009,n,159,1.44,1.08,2.16,16.9,64.199996,1028.22,0,0,0,0,0.024376
2023/10/08 00:10:00.001,n,215,2.52,2.16,2.88,16.9,64.300004,1028.22,0,0,0,0,0.028725
2023/10/08 00:11:00.001,n,200,2.16,1.44,2.52,16.8,64.4,1028.22,0,0,0,0,0.026131
2023/10/08 00:12:00.001,n,169,6.12,5.4,6.84,16.8,64.4,1028.12,0,0,0,0,0.025215
2023/10/08 00:13:00.001,n,311,2.16,0.36,5.04,16.8,64.800004,1028.12,0,0,0,0,0.025215
2023/10/08 00:14:00.002,n,189,3.6,3.24,3.96,16.8,64.6,1028.12,0,0,0,0,0.027847
2023/10/08 00:15:00.005,n,192,4.68,3.96,5.4,16.8,64.5,1028.12,0,0,0,0,0.025215
2023/10/08 00:16:00.006,n,158,5.76,5.04,6.84,16.8,64.5,1028.12,0,0,0,0,0.025215
2023/10/08 00:17:00.010,n,173,7.2,6.12,7.92,16.8,64.5,1028.02,0,0,0,0,0.027008
2023/10/08 00:18:00.012,n,204,1.44,1.08,1.44,16.8,64.6,1028.02,0,0,0,0,0.027847
2023/10/08 00:19:00.002,n,181,2.88,0.72,5.4,16.8,64.6,1028.02,0,0,0,0,0.027008
2023/10/08 00:20:00.002,n,104,2.16,1.44,2.16,16.8,64.6,1028.02,0,0,0,0,0.026131
2023/10/08 00:21:00.002,n,210,6.84,6.12,7.2,16.8,64.699996,1028.02,0,0,0,0,0.024376
2023/10/08 00:22:00.003,n,175,2.88,1.44,4.32,16.8,64.699996,1028.02,0,0,0,0,0.021782
2023/10/08 00:23:00.005,n,209,2.16,1.44,2.52,16.8,64.800004,1028.02,0,0,0,0,0.020027
2023/10/08 00:24:00.008,n,97,0.72,0.36,1.8,16.700002,65,1028.02,0,0,0,0,0.025215
2023/10/08 00:25:00.010,n,281,1.8,1.44,1.8,16.700002,65,1028.02,0,0,0,0,0.025215
2023/10/08 00:26:00.003,n,269,2.88,2.16,2.88,16.700002,65.4,1028.02,0,0,0,0,0.024376
2023/10/08 00:27:00.004,n,278,3.6,2.52,5.04,16.700002,65.800004,1028.02,0,0,0,0,0.024376
2023/10/08 00:28:00.001,n,262,0.72,0.36,1.08,16.700002,65.5,1028.02,0,0,0,0,0.020027
2023/10/08 00:29:00.002,n,265,3.24,2.88,3.24,16.700002,65.5,1028.02,0,0,0,0,0.020027
2023/10/08 00:30:00.002,n,263,2.52,2.16,2.52,16.700002,65.9,1028.02,0,0,0,0,0.024376
2023/10/08 00:31:00.001,n,263,5.04,4.68,5.76,16.700002,65.699996,1027.92,0,0,0,0,0.021782
2023/10/08 00:32:00.001,n,268,4.68,3.96,5.04,16.6,65.699996,1027.92,0,0,0,0,0.023499
2023/10/08 00:33:00.002,n,261,3.96,2.88,4.68,16.6,65.800004,1027.92,0,0,0,0,0.021782
2023/10/08 00:34:00.001,n,259,3.6,3.24,3.96,16.6,65.9,1027.92,0,0,0,0,0.01915
2023/10/08 00:35:00.004,n,250,1.44,1.08,1.44,16.5,66,1027.92,0,0,0,0,0.021782
2023/10/08 00:36:00.018,n,249,2.88,2.16,2.88,16.5,66.1,1027.92,0,0,0,0,0.022659
2023/10/08 00:37:00.002,n,286,4.68,4.32,5.04,16.5,66.5,1027.92,0,0,0,0,0.020866
2023/10/08 00:38:00.004,n,268,5.76,5.04,6.48,16.5,66.4,1027.92,0,0,0,0,0.020027
2023/10/08 00:39:00.006,n,242,3.6,3.24,3.96,16.4,66.5,1027.92,0,0,0,0,0.021782
2023/10/08 00:40:00.007,n,268,3.6,2.52,4.68,16.4,66.699996,1027.82,0,0,0,0,0.01915
2023/10/08 00:41:00.008,n,270,3.24,2.88,3.24,16.4,66.800004,1027.82,0,0,0,0,0.01915
2023/10/08 00:42:00.010,n,215,3.96,3.96,4.68,16.4,67.1,1027.82,0,0,0,0,0.016518
2023/10/08 00:43:00.012,n,275,3.96,3.6,4.68,16.4,67,1027.92,0,0,0,0,0.013924
2023/10/08 00:44:00.014,n,259,3.6,3.24,3.96,16.4,67.2,1027.92,0,0,0,0,0.01915
2023/10/08 00:45:00.016,n,265,1.08,0.72,1.8,16.3,66.800004,1027.92,0,0,0,0,0.016518
2023/10/08 00:46:00.001,n,293,2.52,1.8,2.88,16.3,67,1027.92,0,0,0,0,0.023537
2023/10/08 00:47:00.001,n,245,3.96,2.16,6.12,16.3,66.9,1027.92,0,0,0,0,0.028763
2023/10/08 00:48:00.001,n,226,0.36,0.36,0.36,16.200002,66.800004,1027.92,0,0,0,0,0.028763
2023/10/08 00:49:00.002,n,284,1.44,1.08,2.16,16.200002,67.1,1027.82,0,0,0,0,0.035744
2023/10/08 00:50:00.001,n,19,0.36,0,0.36,16.200002,67,1027.82,0,0,0,0,0.036621
2023/10/08 00:51:00.003,n,204,2.16,2.16,2.52,16.200002,67.1,1027.92,0,0,0,0,0.033989
2023/10/08 00:52:00.010,n,84,2.16,1.8,2.52,16.200002,67,1027.92,0,0,0,0,0.039215
2023/10/08 00:53:00.014,n,149,0.72,0.36,1.08,16.200002,66.9,1027.92,0,0,0,0,0.043564
2023/10/08 00:54:00.008,n,211,1.08,0.36,1.44,16.200002,66.800004,1027.92,0,0,0,0,0.028763
2023/10/08 00:55:00.001,n,168,1.08,0.36,1.44,16.200002,66.699996,1027.82,0,0,0,0,0.033112
2023/10/08 00:56:00.005,n,286,0.36,0,1.44,16.200002,66.699996,1027.82,0,0,0,0,0.035744
2023/10/08 00:57:00.001,n,140,2.16,0.36,2.52,16.200002,66.800004,1027.82,0,0,0,0,0.040932
2023/10/08 00:58:00.009,n,164,1.8,1.08,2.16,16.200002,67.1,1027.82,0,0,0,0,0.041809
2023/10/08 00:59:00.010,n,188,1.08,0.72,1.44,16.200002,67.3,1027.82,0,0,0,0,0.042686
2023/10/08 01:00:00.008,n,158,4.32,2.88,4.68,16.200002,67.4,1027.82,0,0,0,0,0.043526
2023/10/08 01:01:00.001,n,167,6.84,5.76,7.56,16.200002,67.6,1027.82,0,0,0,0,0.044441
2023/10/08 01:02:00.027,n,178,2.88,2.52,3.24,16.1,67.8,1027.82,0,0,0,0,0.04879
2023/10/08 01:03:00.010,n,175,2.52,1.8,2.52,16.1,68.1,1027.82,0,0,0,0,0.051384
2023/10/08 01:04:00.001,n,186,7.2,6.48,7.92,16.1,68.3,1027.82,0,0,0,0,0.049667
2023/10/08 01:05:00.002,n,144,5.04,4.32,5.4,16,68.7,1027.82,0,0,0,0,0.052261
2023/10/08 01:06:00.001,n,154,5.04,3.96,6.12,16,68.8,1027.72,0,0,0,0,0.053139
2023/10/08 01:07:00.001,n,149,3.6,1.08,5.04,16,69.1,1027.72,0,0,0,0,0.028687
2023/10/08 01:08:00.012,n,170,0.72,0.36,1.44,15.9,69.3,1027.72,0,0,0,0,0.034828
2023/10/08 01:09:00.013,n,185,2.88,1.8,3.24,15.9,69.3,1027.72,0,0,0,0,0.034828
2023/10/08 01:10:00.006,n,158,4.68,3.6,5.4,15.9,69.5,1027.72,0,0,0,0,0.035667
2023/10/08 01:11:00.016,n,186,3.96,2.52,5.04,15.9,69.6,1027.72,0,0,0,0,0.035667
2023/10/08 01:12:00.002,n,174,2.16,1.8,2.52,15.8,69.6,1027.62,0,0,0,0,0.038261
2023/10/08 01:13:00.004,n,181,1.8,0.72,2.52,15.8,69.7,1027.62,0,0,0,0,0.040894
2023/10/08 01:14:00.002,n,171,1.8,1.8,2.16,15.8,69.7,1027.62,0,0,0,0,0.037422
2023/10/08 01:15:00.004,n,263,1.8,0.72,2.16,15.8,69.6,1027.62,0,0,0,0,0.040054
2023/10/08 01:16:00.001,n,189,3.24,3.24,3.6,15.8,69.7,1027.62,0,0,0,0,0.039177
2023/10/08 01:17:00.011,n,158,5.4,4.32,6.84,15.8,68.8,1027.62,0,0,0,0,0.040894
2023/10/08 01:18:00.005,n,229,0.72,0.72,1.08,15.8,68.9,1027.62,0,0,0,0,0.042648
2023/10/08 01:19:00.013,n,264,2.88,2.88,3.24,15.8,69,1027.62,0,0,0,0,0.041771
2023/10/08 01:20:00.010,n,266,2.52,1.44,2.88,15.8,69.1,1027.62,0,0,0,0,0.039177
2023/10/08 01:21:00.017,n,248,2.52,2.16,2.88,15.8,69,1027.62,0,0,0,0,0.04612
2023/10/08 01:22:00.001,n,257,2.52,2.52,2.52,15.8,68.8,1027.62,0,0,0,0,0.04612
2023/10/08 01:23:00.005,n,299,1.8,1.44,2.16,15.8,68.6,1027.62,0,0,0,0,0.042648
2023/10/08 01:24:00.002,n,152,2.16,1.08,2.88,15.8,68.7,1027.62,0,0,0,0,0.04612
2023/10/08 01:25:00.001,n,216,1.8,1.44,2.16,15.8,68.3,1027.62,0,0,0,0,0.044403
2023/10/08 01:26:00.001,n,149,0.72,0.36,1.08,15.9,68.5,1027.62,0,0,0,0,0.04612
2023/10/08 01:27:00.001,n,213,1.08,0.36,1.8,15.9,68,1027.62,0,0,0,0,0.047836
2023/10/08 01:28:00.009,n,259,3.24,3.24,3.6,15.9,68.1,1027.62,0,0,0,0,0.047836
2023/10/08 01:29:00.009,n,292,2.52,2.16,3.24,15.9,68.4,1027.62,0,0,0,0,0.049629
2023/10/08 01:30:00.006,n,292,1.8,1.44,2.16,15.9,68.3,1027.62,0,0,0,0,0.047836
2023/10/08 01:31:00.001,n,227,3.24,2.52,3.96,15.9,68.3,1027.62,0,0,0,0,0.051346
2023/10/08 01:32:00.004,n,275,4.32,3.6,5.04,15.9,68.5,1027.62,0,0,0,0,0.049629
2023/10/08 01:33:00.001,n,259,2.16,1.44,3.24,15.9,68.7,1027.62,0,0,0,0,0.026131
2023/10/08 01:34:00.001,n,238,2.88,2.52,3.24,15.9,68.6,1027.62,0,0,0,0,0.034828
2023/10/08 01:35:00.002,n,306,2.88,2.52,3.24,15.8,69.3,1027.62,0,0,0,0,0.033112
2023/10/08 01:36:00.002,n,267,2.88,1.08,4.32,15.8,68.8,1027.62,0,0,0,0,0.031357
2023/10/08 01:37:00.003,n,262,5.76,5.76,6.12,15.8,68.9,1027.72,0,0,0,0,0.02964
2023/10/08 01:38:00.016,n,246,3.24,2.52,4.32,15.8,69.1,1027.72,0,0,0,0,0.031357
2023/10/08 01:39:00.015,n,239,1.08,0.72,1.08,15.8,69.4,1027.62,0,0,0,0,0.030479
2023/10/08 01:40:00.003,n,246,3.6,2.88,4.32,15.8,69.4,1027.62,0,0,0,0,0.033989
2023/10/08 01:41:00.001,n,283,3.24,2.52,3.6,15.7,69.4,1027.62,0,0,0,0,0.032234
2023/10/08 01:42:00.001,n,208,0.36,0,1.44,15.7,69.5,1027.62,0,0,0,0,0.033112
2023/10/08 01:43:00.004,n,268,1.8,1.44,2.16,15.7,69.7,1027.62,0,0,0,0,0.030479
2023/10/08 01:44:00.001,n,181,0.72,0.36,1.08,15.7,70,1027.62,0,0,0,0,0.034828
2023/10/08 01:45:00.002,n,274,2.16,1.44,2.52,15.7,69.9,1027.62,0,0,0,0,0.033112
2023/10/08 01:46:00.015,n,249,2.88,2.52,3.96,15.7,70.2,1027.62,0,0,0,0,0.031357
2023/10/08 01:47:00.004,n,256,3.6,3.6,3.96,15.7,70.3,1027.62,0,0,0,0,0.033112
2023/10/08 01:48:00.023,n,277,2.16,1.8,2.52,15.7,70.3,1027.62,0,0,0,0,0.033112
2023/10/08 01:49:00.014,n,273,3.96,3.24,4.68,15.6,70.3,1027.62,0,0,0,0,0.036583
2023/10/08 01:50:00.001,n,243,3.6,2.88,4.32,15.6,70.1,1027.62,0,0,0,0,0.036583
2023/10/08 01:51:00.001,n,269,2.88,2.52,3.24,15.6,70.5,1027.62,0,0,0,0,0.034828
2023/10/08 01:52:00.002,n,262,3.6,2.16,4.68,15.6,70.5,1027.62,0,0,0,0,0.033989
2023/10/08 01:53:00.002,n,271,4.68,4.32,5.04,15.6,70.5,1027.52,0,0,0,0,0.032234
2023/10/08 01:54:00.002,n,275,3.96,3.24,4.68,15.5,70.7,1027.52,0,0,0,0,0.033989
2023/10/08 01:55:00.009,n,265,3.24,2.88,3.24,15.5,70.9,1027.52,0,0,0,0,0.033989
2023/10/08 01:56:00.013,n,268,4.32,3.6,5.04,15.5,70.9,1027.52,0,0,0,0,0.034828
2023/10/08 01:57:00.011,n,277,5.76,4.68,7.92,15.5,70.9,1027.52,0,0,0,0,0.034828
2023/10/08 01:58:00.001,n,265,3.24,3.24,4.32,15.4,71,1027.62,0,0,0,0,0.033112
2023/10/08 01:59:00.001,n,229,2.16,1.08,2.52,15.4,71.5,1027.62,0,0,0,0,0.033989
2023/10/08 02:00:00.001,n,131,0.36,0,0.72,15.4,71.5,1027.52,0,0,0,0,0.033989
2023/10/08 02:01:00.001,n,276,4.32,3.6,5.04,15.4,71.5,1027.52,0,0,0,0,0.033112
2023/10/08 02:02:00.002,n,47,0.72,0.36,1.08,15.4,71.4,1027.52,0,0,0,0,0.035706
2023/10/08 02:03:00.009,n,88,0.36,0.36,0.72,15.4,71.7,1027.52,0,0,0,0,0.034828
2023/10/08 02:04:00.015,n,118,1.44,1.08,1.8,15.4,71.6,1027.52,0,0,0,0,0.034828
2023/10/08 02:05:00.001,n,159,0.72,0.36,1.8,15.4,71.5,1027.52,0,0,0,0,0.033112
2023/10/08 02:06:00.013,n,182,0.72,0.36,0.72,15.4,71.4,1027.52,0,0,0,0,0.036583
2023/10/08 02:07:00.001,n,158,0.72,0.36,1.08,15.4,71.4,1027.52,0,0,0,0,0.035706
2023/10/08 02:08:00.002,n,112,0.36,0.36,0.72,15.3,71.3,1027.52,0,0,0,0,0.033989
2023/10/08 02:09:00.002,n,280,2.52,2.52,3.24,15.3,71.3,1027.52,0,0,0,0,0.032234
2023/10/08 02:10:00.001,n,252,1.8,1.44,1.8,15.3,71.4,1027.52,0,0,0,0,0.033112
2023/10/08 02:11:00.009,n,202,1.44,1.08,1.8,15.3,71.6,1027.52,0,0,0,0,0.033989
2023/10/08 02:12:00.003,n,255,2.16,1.8,2.52,15.3,71.5,1027.52,0,0,0,0,0.02964
2023/10/08 02:13:00.018,n,242,1.44,1.44,1.8,15.3,71.5,1027.52,0,0,0,0,0.033112
2023/10/08 02:14:00.009,n,189,3.6,2.88,3.96,15.3,71.4,1027.52,0,0,0,0,0.032234
2023/10/08 02:15:00.013,n,220,2.52,1.8,3.96,15.3,71.1,1027.52,0,0,0,0,0.032234
2023/10/08 02:16:00.001,n,274,2.88,2.16,3.24,15.3,71.2,1027.52,0,0,0,0,0.033112
2023/10/08 02:17:00.007,n,197,1.08,0.36,2.52,15.3,71.5,1027.52,0,0,0,0,0.030479
2023/10/08 02:18:00.001,n,274,2.16,2.16,2.52,15.3,71.3,1027.52,0,0,0,0,0.02964
2023/10/08 02:19:00.001,n,218,3.6,2.88,3.96,15.3,71.3,1027.52,0,0,0,0,0.032234
2023/10/08 02:20:00.011,n,166,1.08,0.72,1.44,15.3,71.1,1027.52,0,0,0,0,0.031357
2023/10/08 02:21:00.003,n,257,3.6,3.24,3.96,15.3,71,1027.52,0,0,0,0,0.033989
2023/10/08 02:22:00.001,n,283,2.52,1.8,3.24,15.3,71.1,1027.52,0,0,0,0,0.032234
2023/10/08 02:23:00.017,n,255,2.16,1.8,2.52,15.3,71.4,1027.52,0,0,0,0,0.030479
2023/10/08 02:24:00.002,n,35,0.72,0.36,1.08,15.3,71.3,1027.52,0,0,0,0,0.031357
2023/10/08 02:25:00.002,n,278,3.24,3.24,3.96,15.3,71.8,1027.52,0,0,0,0,0.030479
2023/10/08 02:26:00.002,n,272,5.76,1.8,9.36,15.3,71.5,1027.52,0,0,0,0,0.027847
2023/10/08 02:27:00.001,n,275,5.04,2.88,7.2,15.3,71.5,1027.52,0,0,0,0,0.028763
2023/10/08 02:28:00.004,n,269,5.4,4.68,6.48,15.3,71.9,1027.52,0,0,0,0,0.027847
2023/10/08 02:29:00.001,n,275,6.84,6.12,8.64,15.3,71.8,1027.42,0,0,0,0,0.031357
2023/10/08 02:30:00.007,n,314,3.96,2.88,4.68,15.3,72.8,1027.42,0,0,0,0,0.032234
2023/10/08 02:31:00.007,n,274,3.96,3.24,5.4,15.3,72.3,1027.42,0,0,0,0,0.034828
2023/10/08 02:32:00.009,n,282,5.76,4.68,6.84,15.2,71.9,1027.42,0,0,0,0,0.032234
2023/10/08 02:33:00.005,n,228,3.24,2.88,3.24,15.2,71.9,1027.52,0,0,0,0,0.033112
2023/10/08 02:34:00.008,n,286,4.32,3.24,5.4,15.2,72.1,1027.52,0,0,0,0,0.033989
2023/10/08 02:35:00.005,n,269,3.96,3.6,4.68,15.1,71.7,1027.52,0,0,0,0,0.033989
2023/10/08 02:36:00.005,n,205,1.08,0.72,1.8,15.1,72,1027.52,0,0,0,0,0.033112
2023/10/08 02:37:00.006,n,261,3.96,3.6,5.04,15.1,71.8,1027.52,0,0,0,0,0.033989
2023/10/08 02:38:00.001,n,281,4.32,3.6,5.04,15.1,71.7,1027.52,0,0,0,0,0.034828
2023/10/08 02:39:00.019,n,283,1.44,1.08,1.8,15.1,72,1027.52,0,0,0,0,0.032234
2023/10/08 02:40:00.001,n,126,2.88,2.16,3.24,15.1,71.6,1027.52,0,0,0,0,0.034828
2023/10/08 02:41:00.005,n,262,1.44,0.72,2.88,15.1,71.5,1027.52,0,0,0,0,0.030479
2023/10/08 02:42:00.008,n,133,1.8,0.72,2.52,15.1,71.4,1027.52,0,0,0,0,0.034828
2023/10/08 02:43:00.002,n,177,1.08,0.72,1.08,15.2,71.5,1027.62,0,0,0,0,0.036583
2023/10/08 02:44:00.003,n,146,1.08,0.72,1.08,15.2,71.4,1027.62,0,0,0,0,0.034828
2023/10/08 02:45:00.001,n,253,0.72,0.72,1.08,15.2,71.6,1027.62,0,0,0,0,0.033989
2023/10/08 02:46:00.002,n,219,1.08,0.36,1.44,15.2,71.2,1027.62,0,0,0,0,0.033112
2023/10/08 02:47:00.141,n,299,0.72,0.36,1.08,15.2,71.1,1027.62,0,0,0,0,0.035706
2023/10/08 02:48:00.002,n,176,0.72,0.36,1.08,15.3,71,1027.62,0,0,0,0,0.036583
2023/10/08 02:49:00.003,n,283,4.68,3.6,6.12,15.3,70.9,1027.62,0,0,0,0,0.038338
2023/10/08 02:50:00.002,n,260,1.44,0.72,2.16,15.3,71,1027.62,0,0,0,0,0.033989
2023/10/08 02:51:00.011,n,292,1.08,0.72,1.44,15.3,70.7,1027.62,0,0,0,0,0.035706
2023/10/08 02:52:00.002,n,311,1.44,0.72,2.52,15.3,70.8,1027.62,0,0,0,0,0.036583
2023/10/08 02:53:00.001,n,225,1.08,0.72,1.44,15.3,70.7,1027.62,0,0,0,0,0.040054
2023/10/08 02:54:00.001,n,314,1.08,0.36,1.8,15.4,70.6,1027.62,0,0,0,0,0.040054
2023/10/08 02:55:00.017,n,302,2.16,1.8,2.88,15.4,70.6,1027.72,0,0,0,0,0.039215
2023/10/08 02:56:00.009,n,263,2.52,2.52,3.24,15.4,70.6,1027.72,0,0,0,0,0.042686
2023/10/08 02:57:00.008,n,284,4.68,3.6,5.4,15.4,70.8,1027.72,0,0,0,0,0.041809
2023/10/08 02:58:00.001,n,145,2.88,2.16,3.24,15.4,70.4,1027.72,0,0,0,0,0.044403
2023/10/08 02:59:00.002,n,188,0.72,0,1.08,15.4,70.3,1027.72,0,0,0,0,0.040054
2023/10/08 03:00:00.014,n,260,1.08,0.72,2.16,15.4,70.4,1027.72,0,0,0,0,0.042686
2023/10/08 03:01:00.002,n,94,1.08,0.36,1.8,15.4,70.2,1027.72,0,0,0,0,0.040932
2023/10/08 03:02:00.004,n,182,2.52,2.16,3.24,15.4,70,1027.72,0,0,0,0,0.043564
2023/10/08 03:03:00.001,n,132,1.08,0.72,1.8,15.4,69.9,1027.72,0,0,0,0,0.043564
2023/10/08 03:04:00.001,n,201,1.44,0.36,2.88,15.4,69.6,1027.82,0,0,0,0,0.04528
2023/10/08 03:05:00.001,n,166,2.88,1.8,3.6,15.4,69.5,1027.82,0,0,0,0,0.046158
2023/10/08 03:06:00.008,n,84,2.52,2.16,2.88,15.4,69.6,1027.82,0,0,0,0,0.044403
2023/10/08 03:07:00.001,n,173,3.96,3.24,4.32,15.4,69.5,1027.82,0,0,0,0,0.04528
2023/10/08 03:08:00.007,n,170,0.72,0.36,1.08,15.4,69.6,1027.82,0,0,0,0,0.046158
2023/10/08 03:09:00.009,n,265,5.04,3.6,5.4,15.4,69.7,1027.82,0,0,0,0,0.046158
2023/10/08 03:10:00.003,n,154,4.32,2.88,5.04,15.4,69.4,1027.82,0,0,0,0,0.044403
2023/10/08 03:11:00.008,n,142,3.6,2.52,3.6,15.4,69.4,1027.82,0,0,0,0,0.044403
2023/10/08 03:12:00.011,n,164,4.32,3.96,4.68,15.5,69.3,1027.82,0,0,0,0,0.042686
2023/10/08 03:13:00.002,n,166,3.24,1.8,4.32,15.5,69.2,1027.82,0,0,0,0,0.04528
2023/10/08 03:14:00.011,n,261,4.32,3.6,5.04,15.5,69.5,1027.82,0,0,0,0,0.044403
2023/10/08 03:15:00.010,n,263,2.88,2.88,3.6,15.5,69.5,1027.82,0,0,0,0,0.047913
2023/10/08 03:16:00.014,n,283,2.16,1.44,3.96,15.5,69.6,1027.82,0,0,0,0,0.047913
2023/10/08 03:17:00.018,n,268,2.52,0.72,4.32,15.5,70.2,1027.82,0,0,0,0,0.046158
2023/10/08 03:18:00.009,n,271,1.08,1.08,1.8,15.5,69.8,1027.82,0,0,0,0,0.047913
2023/10/08 03:19:00.003,n,88,0.72,0.36,1.08,15.5,69.6,1027.82,0,0,0,0,0.047035
2023/10/08 03:20:00.001,n,256,3.24,2.88,3.24,15.5,69.5,1027.82,0,0,0,0,0.047913
2023/10/08 03:21:00.001,n,274,3.24,2.88,3.6,15.4,69.5,1027.82,0,0,0,0,0.047035
2023/10/08 03:22:00.004,n,215,0.72,0.36,1.08,15.4,69.6,1027.82,0,0,0,0,0.047035
2023/10/08 03:23:00.002,n,213,0.36,0.36,0.36,15.4,69.6,1027.82,0,0,0,0,0.04528
2023/10/08 03:24:00.006,n,225,1.44,0.72,1.8,15.4,69.6,1027.82,0,0,0,0,0.044403
2023/10/08 03:25:00.003,n,197,0.72,0.36,0.72,15.4,69.5,1027.82,0,0,0,0,0.025291
2023/10/08 03:26:00.015,n,118,0.72,0,1.08,15.4,69.6,1027.82,0,0,0,0,0.02964
2023/10/08 03:27:00.022,n,245,0.72,0,0.72,15.4,69.7,1027.82,0,0,0,0,0.030479
2023/10/08 03:28:00.002,n,36,0.72,0.36,1.44,15.5,69.5,1027.82,0,0,0,0,0.02964
2023/10/08 03:29:00.001,n,238,2.52,2.16,2.88,15.5,69.1,1027.82,0,0,0,0,0.032234
2023/10/08 03:30:00.005,n,232,1.08,0.36,1.8,15.5,69,1027.92,0,0,0,0,0.033073
2023/10/08 03:31:00.005,n,163,0.72,0.36,1.08,15.5,68.9,1027.92,0,0,0,0,0.030479
2023/10/08 03:32:00.007,n,256,2.52,2.52,2.88,15.5,69,1027.92,0,0,0,0,0.033073
2023/10/08 03:33:00.001,n,22,0.72,0.36,1.44,15.5,69.4,1027.92,0,0,0,0,0.030479
2023/10/08 03:34:00.016,n,229,1.8,0.72,3.24,15.5,69.3,1027.92,0,0,0,0,0.02964
2023/10/08 03:35:00.003,n,195,2.16,1.8,2.52,15.5,69.1,1027.92,0,0,0,0,0.032234
2023/10/08 03:36:00.012,n,237,2.16,1.8,2.52,15.5,69.1,1028.02,0,0,0,0,0.032234
2023/10/08 03:37:00.001,n,290,2.88,2.16,3.24,15.5,69.1,1028.02,0,0,0,0,0.031357
2023/10/08 03:38:00.006,n,235,2.16,1.8,2.52,15.4,69.1,1028.02,0,0,0,0,0.030479
2023/10/08 03:39:00.001,n,236,1.44,1.08,1.44,15.4,69.1,1028.02,0,0,0,0,0.032234
2023/10/08 03:40:00.002,n,262,2.88,1.8,3.96,15.4,69.1,1028.02,0,0,0,0,0.035706
2023/10/08 03:41:00.013,n,149,1.08,0.72,1.8,15.4,69.1,1028.02,0,0,0,0,0.031357
2023/10/08 03:42:00.001,n,253,1.8,1.44,2.16,15.4,69.1,1028.02,0,0,0,0,0.033073
2023/10/08 03:43:00.006,n,332,1.08,0.36,1.8,15.4,69.2,1028.02,0,0,0,0,0.033073
2023/10/08 03:44:00.008,n,166,1.08,0.72,1.44,15.4,69.4,1028.02,0,0,0,0,0.031357
2023/10/08 03:45:00.014,n,236,2.52,2.16,2.88,15.4,69.3,1028.02,0,0,0,0,0.027885
2023/10/08 03:46:00.002,n,264,2.88,2.52,3.24,15.4,69.3,1028.02,0,0,0,0,0.030479
2023/10/08 03:47:00.005,n,247,1.44,1.08,1.8,15.4,69.4,1028.12,0,0,0,0,0.034866
2023/10/08 03:48:00.008,n,265,2.88,2.88,3.24,15.4,69.3,1028.12,0,0,0,0,0.032234
2023/10/08 03:49:00.008,n,264,2.16,1.44,2.52,15.3,69.2,1028.12,0,0,0,0,0.027008
2023/10/08 03:50:00.001,n,287,3.6,3.24,4.32,15.4,69.9,1028.12,0,0,0,0,0.030479
2023/10/08 03:51:00.002,n,265,1.8,1.08,2.52,15.4,69.8,1028.12,0,0,0,0,0.02964
2023/10/08 03:52:00.007,n,323,1.44,1.08,1.8,15.4,69.7,1028.12,0,0,0,0,0.030479
2023/10/08 03:53:00.007,n,264,2.52,1.8,2.88,15.4,69.3,1028.12,0,0,0,0,0.02964
2023/10/08 03:54:00.019,n,277,3.96,3.6,4.68,15.3,69,1028.12,0,0,0,0,0.027008
2023/10/08 03:55:00.002,n,242,1.44,1.08,1.8,15.3,68.9,1028.12,0,0,0,0,0.030479
2023/10/08 03:56:00.002,n,236,2.16,1.8,2.52,15.3,68.9,1028.22,0,0,0,0,0.032234
2023/10/08 03:57:00.001,n,242,3.6,2.52,3.96,15.3,68.9,1028.22,0,0,0,0,0.030479
2023/10/08 03:58:00.002,n,272,4.68,3.24,5.76,15.3,68.9,1028.22,0,0,0,0,0.030479
2023/10/08 03:59:00.004,n,269,3.6,3.24,3.6,15.3,68.8,1028.22,0,0,0,0,0.02964
2023/10/08 04:00:00.002,n,260,3.6,3.24,3.96,15.3,68.8,1028.22,0,0,0,0,0.028725
2023/10/08 04:01:00.001,n,254,2.88,2.16,4.32,15.3,69.3,1028.22,0,0,0,0,0.027008
2023/10/08 04:02:00.017,n,250,3.24,1.8,5.04,15.3,69.1,1028.32,0,0,0,0,0.030479
2023/10/08 04:03:00.001,n,263,2.52,2.16,2.88,15.3,69.1,1028.32,0,0,0,0,0.031357
2023/10/08 04:04:00.002,n,259,3.96,3.6,4.32,15.3,69.4,1028.32,0,0,0,0,0.031357
2023/10/08 04:05:00.006,n,260,6.84,6.12,7.2,15.3,69.4,1028.32,0,0,0,0,0.026131
2023/10/08 04:06:00.002,n,256,3.6,2.52,4.32,15.4,70,1028.32,0,0,0,0,0.028725
2023/10/08 04:07:00.003,n,261,5.4,4.68,6.12,15.4,69.4,1028.32,0,0,0,0,0.031357
2023/10/08 04:08:00.003,n,259,5.76,5.4,5.76,15.4,69.1,1028.32,0,0,0,0,0.028725
2023/10/08 04:09:00.005,n,273,4.68,3.96,5.04,15.3,69.5,1028.32,0,0,0,0,0.025291
2023/10/08 04:10:00.004,n,262,3.24,2.88,3.24,15.3,69.1,1028.32,0,0,0,0,0.027885
2023/10/08 04:11:00.002,n,251,7.56,7.2,7.92,15.3,68.9,1028.32,0,0,0,0,0.032234
2023/10/08 04:12:00.017,n,259,6.84,6.12,7.2,15.3,68.9,1028.32,0,0,0,0,0.031357
2023/10/08 04:13:00.013,n,262,4.32,3.96,4.32,15.3,69,1028.32,0,0,0,0,0.028725
2023/10/08 04:14:00.008,n,303,2.52,1.8,2.88,15.3,69.6,1028.42,0,0,0,0,0.031357
2023/10/08 04:15:00.009,n,263,7.2,6.84,7.92,15.3,68.6,1028.42,0,0,0,0,0.031357
2023/10/08 04:16:00.002,n,278,6.84,6.48,7.56,15.3,68.5,1028.42,0,0,0,0,0.028725
2023/10/08 04:17:00.008,n,290,6.12,5.04,7.2,15.3,68.6,1028.42,0,0,0,0,0.027885
2023/10/08 04:18:00.003,n,258,6.48,5.76,6.84,15.3,68.5,1028.42,0,0,0,0,0.027885
2023/10/08 04:19:00.011,n,261,3.6,3.24,3.96,15.3,68.4,1028.42,0,0,0,0,0.027885
2023/10/08 04:20:00.003,n,280,5.04,4.32,6.12,15.3,68.6,1028.42,0,0,0,0,0.035706
2023/10/08 04:21:00.015,n,269,7.2,6.48,7.56,15.3,68.4,1028.42,0,0,0,0,0.033073
2023/10/08 04:22:00.001,n,281,3.6,2.52,4.32,15.3,69.7,1028.42,0,0,0,0,0.030479
2023/10/08 04:23:00.002,n,247,3.24,2.88,3.6,15.4,69.1,1028.42,0,0,0,0,0.026131
2023/10/08 04:24:00.004,n,238,2.52,0.72,3.96,15.3,68.8,1028.42,0,0,0,0,0.028725
2023/10/08 04:25:00.005,n,263,4.32,3.96,5.04,15.3,68.5,1028.42,0,0,0,0,0.028725
2023/10/08 04:26:00.006,n,268,6.12,5.4,6.84,15.3,68.3,1028.42,0,0,0,0,0.025291
2023/10/08 04:27:00.001,n,270,5.4,3.96,5.4,15.3,68.3,1028.42,0,0,0,0,0.02964
2023/10/08 04:28:00.010,n,261,3.6,3.6,4.32,15.3,68.3,1028.42,0,0,0,0,0.025291
2023/10/08 04:29:00.008,n,261,3.96,2.88,4.68,15.3,68.9,1028.42,0,0,0,0,0.030479
2023/10/08 04:30:00.018,n,283,3.96,3.24,4.68,15.3,68.7,1028.42,0,0,0,0,0.02964
2023/10/08 04:31:00.001,n,279,5.04,4.32,5.76,15.3,68.6,1028.42,0,0,0,0,0.032234
2023/10/08 04:32:00.001,n,125,3.6,2.88,3.96,15.3,68.3,1028.42,0,0,0,0,0.027885
2023/10/08 04:33:00.004,n,177,2.52,1.44,3.24,15.3,68.2,1028.42,0,0,0,0,0.027885
2023/10/08 04:34:00.005,n,101,2.16,0.72,2.88,15.3,68.3,1028.42,0,0,0,0,0.030479
2023/10/08 04:35:00.001,n,151,2.88,2.16,2.88,15.3,68.1,1028.42,0,0,0,0,0.027885
2023/10/08 04:36:00.007,n,200,0.72,0.36,0.72,15.3,68.3,1028.52,0,0,0,0,0.02964
2023/10/08 04:37:00.007,n,250,1.8,0.72,3.24,15.4,68.6,1028.52,0,0,0,0,0.033073
2023/10/08 04:38:00.016,n,265,1.8,1.08,2.16,15.4,68.3,1028.52,0,0,0,0,0.030479
2023/10/08 04:39:00.010,n,143,2.16,1.08,2.52,15.4,68.1,1028.52,0,0,0,0,0.027885
2023/10/08 04:40:00.002,n,65,0.72,0.36,1.44,15.4,68.2,1028.52,0,0,0,0,0.032234
2023/10/08 04:41:00.004,n,257,0.72,0.36,1.08,15.4,68,1028.52,0,0,0,0,0.028725
2023/10/08 04:42:00.001,n,117,2.88,0.72,3.96,15.4,67.7,1028.52,0,0,0,0,0.02964
2023/10/08 04:43:00.002,n,241,1.44,0.72,1.8,15.4,67.7,1028.52,0,0,0,0,0.02964
2023/10/08 04:44:00.009,n,275,5.4,5.04,5.76,15.4,67.6,1028.52,0,0,0,0,0.031357
2023/10/08 04:45:00.009,n,262,3.6,2.88,3.96,15.4,67.7,1028.52,0,0,0,0,0.033989
2023/10/08 04:46:00.004,n,272,3.24,2.52,3.6,15.4,68.2,1028.52,0,0,0,0,0.032234
2023/10/08 04:47:00.007,n,256,2.88,2.52,3.24,15.5,68.5,1028.52,0,0,0,0,0.033073
2023/10/08 04:48:00.009,n,259,6.12,5.76,6.48,15.4,67.7,1028.52,0,0,0,0,0.032234
2023/10/08 04:49:00.002,n,227,2.52,1.44,3.24,15.4,67.6,1028.52,0,0,0,0,0.033989
2023/10/08 04:50:00.008,n,270,3.6,3.24,3.96,15.4,67.6,1028.52,0,0,0,0,0.033073
2023/10/08 04:51:00.001,n,268,2.88,2.52,2.88,15.4,67.6,1028.62,0,0,0,0,0.033073
2023/10/08 04:52:00.002,n,251,2.52,2.16,2.88,15.4,67.6,1028.62,0,0,0,0,0.033989